| time (UTC) | temp F | wind direction | speed MPH | gust MPH | rain 1hr in | rain 24hr in | rain mn in | humidity % | barometer mb |
| 20260505064623 | 61 | 232 | 7.0 | 15.0 | 0.00 | 0.00 | 0.00 | 53 | 1007.5 |
| 20260505063631 | 61 | 223 | 10.0 | 18.0 | 0.00 | 0.00 | 0.00 | 52 | 1007.4 |
| 20260505062624 | 61 | 217 | 12.0 | 20.0 | 0.00 | 0.00 | 0.00 | 51 | 1006.9 |
| 20260505061616 | 61 | 212 | 8.0 | 16.0 | 0.00 | 0.00 | 0.00 | 52 | 1007.0 |
| 20260505060627 | 61 | 193 | 10.0 | 15.0 | 0.00 | 0.00 | 0.00 | 51 | 1006.9 |
| 20260505055624 | 62 | 196 | 9.0 | 15.0 | 0.00 | 0.00 | 0.00 | 51 | 1006.8 |
| 20260505054612 | 62 | 192 | 8.0 | 18.0 | 0.00 | 0.00 | 0.00 | 50 | 1006.8 |
| 20260505053622 | 60 | 167 | 7.0 | 12.0 | 0.00 | 0.00 | 0.00 | 51 | 1006.8 |
| 20260505052629 | 60 | 183 | 6.0 | 9.0 | 0.00 | 0.00 | 0.00 | 52 | 1006.8 |
| 20260505051618 | 61 | 190 | 3.0 | 6.0 | 0.00 | 0.00 | 0.00 | 49 | 1006.7 |
| 20260505050624 | 61 | 182 | 2.0 | 4.0 | 0.00 | 0.00 | 0.00 | 47 | 1006.8 |
| 20260505041649 | 63 | 164 | 4.0 | 8.0 | 0.00 | 0.00 | 0.00 | 44 | 1006.4 |
| 20260505040637 | 64 | 194 | 7.0 | 9.0 | 0.00 | 0.00 | 0.00 | 42 | 1006.2 |
| 20260505035619 | 63 | 227 | 7.0 | 10.0 | 0.00 | 0.00 | 0.00 | 41 | 1006.2 |
| 20260505034648 | 61 | 200 | 5.0 | 7.0 | 0.00 | 0.00 | 0.00 | 47 | 1006.1 |
| 20260505033621 | 60 | 221 | 4.0 | 6.0 | 0.00 | 0.00 | 0.00 | 48 | 1006.0 |
| 20260505032631 | 61 | 165 | 3.0 | 5.0 | 0.00 | 0.00 | 0.00 | 46 | 1005.8 |
| 20260505031618 | 64 | 188 | 4.0 | 12.0 | 0.00 | 0.00 | 0.00 | 43 | 1005.7 |
| 20260505030628 | 66 | 220 | 10.0 | 17.0 | 0.00 | 0.00 | 0.00 | 35 | 1005.5 |
| 20260505025615 | 66 | 216 | 11.0 | 16.0 | 0.00 | 0.00 | 0.00 | 38 | 1005.3 |
| 20260505024625 | 66 | 213 | 8.0 | 14.0 | 0.00 | 0.00 | 0.00 | 40 | 1005.3 |
| 20260505023614 | 67 | 223 | 10.0 | 12.0 | 0.00 | 0.00 | 0.00 | 36 | 1005.3 |
| 20260505022642 | 67 | 213 | 9.0 | 12.0 | 0.00 | 0.00 | 0.00 | 35 | 1005.1 |
| 20260505021615 | 68 | 217 | 6.0 | 9.0 | 0.00 | 0.00 | 0.00 | 33 | 1005.0 |
| 20260505020626 | 68 | 222 | 6.0 | 8.0 | 0.00 | 0.00 | 0.00 | 32 | 1005.0 |
| 20260505015625 | 69 | 222 | 5.0 | 7.0 | 0.00 | 0.00 | 0.00 | 33 | 1004.9 |
| 20260505014635 | 69 | 216 | 5.0 | 8.0 | 0.00 | 0.00 | 0.00 | 34 | 1004.9 |
| 20260505013649 | 70 | 197 | 4.0 | 5.0 | 0.00 | 0.00 | 0.00 | 37 | 1004.7 |
| 20260505012618 | 70 | 192 | 3.0 | 6.0 | 0.00 | 0.00 | 0.00 | 36 | 1004.7 |
| 20260505011648 | 71 | 200 | 2.0 | 4.0 | 0.00 | 0.00 | 0.00 | 33 | 1004.7 |
| 20260505010616 | 71 | 212 | 3.0 | 7.0 | 0.00 | 0.00 | 0.00 | 29 | 1004.7 |
| 20260505005621 | 71 | 248 | 3.0 | 5.0 | 0.00 | 0.00 | 0.00 | 30 | 1004.8 |
| 20260505004613 | 71 | 250 | 3.0 | 5.0 | 0.00 | 0.00 | 0.00 | 28 | 1005.0 |
| 20260505003621 | 71 | 326 | 0.0 | 2.0 | 0.00 | 0.00 | 0.00 | 26 | 1005.0 |
| 20260505002630 | 70 | 326 | 0.0 | 4.0 | 0.00 | 0.00 | 0.00 | 27 | 1005.2 |
| 20260505001622 | 70 | 33 | 7.0 | 14.0 | 0.00 | 0.00 | 0.00 | 30 | 1005.2 |
| 20260505000632 | 71 | 360 | 12.0 | 18.0 | 0.00 | 0.00 | 0.00 | 29 | 1005.3 |
| 20260504235614 | 68 | 360 | 12.0 | 21.0 | 0.00 | 0.00 | 0.00 | 32 | 1005.6 |
| 20260504234625 | 69 | 346 | 14.0 | 21.0 | 0.00 | 0.00 | 0.00 | 30 | 1005.5 |
| 20260504233619 | 68 | 348 | 15.0 | 24.0 | 0.00 | 0.00 | 0.00 | 30 | 1005.5 |
| 20260504232625 | 68 | 339 | 18.0 | 26.0 | 0.00 | 0.00 | 0.00 | 31 | 1005.6 |
| 20260504231616 | 68 | 321 | 15.0 | 21.0 | 0.00 | 0.00 | 0.00 | 31 | 1005.8 |
| 20260504230627 | 68 | 317 | 13.0 | 21.0 | 0.00 | 0.00 | 0.00 | 33 | 1005.7 |
| 20260504225614 | 69 | 328 | 14.0 | 25.0 | 0.00 | 0.00 | 0.00 | 29 | 1005.7 |
| 20260504224626 | 69 | 334 | 13.0 | 18.0 | 0.00 | 0.00 | 0.00 | 30 | 1005.7 |
| 20260504223615 | 73 | 317 | 13.0 | 20.0 | 0.00 | 0.00 | 0.00 | 26 | 1005.9 |
| 20260504222625 | 76 | 161 | 4.0 | 11.0 | 0.00 | 0.00 | 0.00 | 25 | 1005.6 |
| 20260504221618 | 75 | 203 | 8.0 | 13.0 | 0.00 | 0.00 | 0.00 | 27 | 1005.4 |
| 20260504220630 | 76 | 158 | 9.0 | 15.0 | 0.00 | 0.00 | 0.00 | 25 | 1005.4 |
| 20260504215632 | 75 | 142 | 8.0 | 16.0 | 0.00 | 0.00 | 0.00 | 27 | 1005.6 |
| 20260504214624 | 75 | 152 | 9.0 | 14.0 | 0.00 | 0.00 | 0.00 | 29 | 1005.8 |
| 20260504213639 | 75 | 138 | 9.0 | 15.0 | 0.00 | 0.00 | 0.00 | 28 | 1005.8 |
| 20260504212629 | 75 | 167 | 7.0 | 16.0 | 0.00 | 0.00 | 0.00 | 27 | 1006.0 |
| 20260504211619 | 75 | 188 | 9.0 | 15.0 | 0.00 | 0.00 | 0.00 | 31 | 1006.2 |
| 20260504210650 | 75 | 192 | 6.0 | 13.0 | 0.00 | 0.00 | 0.00 | 24 | 1006.3 |
| 20260504205618 | 75 | 160 | 9.0 | 15.0 | 0.00 | 0.00 | 0.00 | 29 | 1006.5 |
| 20260504204629 | 75 | 154 | 7.0 | 15.0 | 0.00 | 0.00 | 0.00 | 27 | 1006.6 |
| 20260504203621 | 75 | 148 | 7.0 | 15.0 | 0.00 | 0.00 | 0.00 | 26 | 1006.6 |
| 20260504202651 | 75 | 190 | 8.0 | 12.0 | 0.00 | 0.00 | 0.00 | 27 | 1006.7 |
| 20260504201625 | 74 | 173 | 9.0 | 14.0 | 0.00 | 0.00 | 0.00 | 29 | 1006.8 |
| 20260504200618 | 73 | 184 | 7.0 | 12.0 | 0.00 | 0.00 | 0.00 | 32 | 1007.0 |
| 20260504195621 | 73 | 134 | 8.0 | 16.0 | 0.00 | 0.00 | 0.00 | 29 | 1007.2 |
| 20260504194619 | 73 | 153 | 8.0 | 13.0 | 0.00 | 0.00 | 0.00 | 29 | 1007.3 |
| 20260504193613 | 73 | 141 | 8.0 | 14.0 | 0.00 | 0.00 | 0.00 | 31 | 1007.4 |
| 20260504192626 | 73 | 157 | 6.0 | 16.0 | 0.00 | 0.00 | 0.00 | 31 | 1007.6 |
| 20260504191619 | 72 | 178 | 0.0 | 14.0 | 0.00 | 0.00 | 0.00 | 29 | 1007.7 |
| 20260504190614 | 73 | 189 | 8.0 | 11.0 | 0.00 | 0.00 | 0.00 | 31 | 1007.8 |
| 20260504185618 | 72 | 165 | 4.0 | 11.0 | 0.00 | 0.00 | 0.00 | 32 | 1008.0 |
| 20260504184629 | 72 | 149 | 4.0 | 12.0 | 0.00 | 0.00 | 0.00 | 29 | 1008.2 |
| 20260504183622 | 71 | 147 | 4.0 | 11.0 | 0.00 | 0.00 | 0.00 | 32 | 1008.5 |
| 20260504182618 | 71 | 163 | 6.0 | 11.0 | 0.00 | 0.00 | 0.00 | 33 | 1008.6 |
| 20260504181629 | 71 | 148 | 4.0 | 15.0 | 0.00 | 0.00 | 0.00 | 35 | 1008.7 |
| 20260504180624 | 69 | 230 | 4.0 | 13.0 | 0.00 | 0.00 | 0.00 | 38 | 1008.9 |
| 20260504175625 | 70 | 153 | 8.0 | 13.0 | 0.00 | 0.00 | 0.00 | 35 | 1008.9 |
| 20260504174619 | 70 | 214 | 8.0 | 12.0 | 0.00 | 0.00 | 0.00 | 33 | 1009.1 |
| 20260504173613 | 69 | 192 | 8.0 | 12.0 | 0.00 | 0.00 | 0.00 | 34 | 1009.1 |
| 20260504172646 | 69 | 160 | 8.0 | 13.0 | 0.00 | 0.00 | 0.00 | 33 | 1009.1 |
| 20260504171620 | 69 | 186 | 8.0 | 11.0 | 0.00 | 0.00 | 0.00 | 37 | 1009.2 |
| 20260504170618 | 68 | 140 | 7.0 | 10.0 | 0.00 | 0.00 | 0.00 | 39 | 1009.4 |
| 20260504150630 | 60 | 24 | 2.0 | 5.0 | 0.00 | 0.00 | 0.00 | 42 | 1009.7 |
| 20260504140618 | 53 | 341 | 3.0 | 6.0 | 0.00 | 0.00 | 0.00 | 45 | 1010.2 |
| 20260504130623 | 48 | 323 | 1.0 | 4.0 | 0.00 | 0.00 | 0.00 | 55 | 1009.9 |
| 20260504110613 | 46 | 238 | 2.0 | 17.0 | 0.00 | 0.00 | 0.00 | 55 | 1009.5 |
| 20260504081629 | 54 | 284 | 6.0 | 9.0 | 0.00 | 0.00 | 0.00 | 42 | 1008.7 |
| 20260504080616 | 54 | 307 | 7.0 | 10.0 | 0.00 | 0.00 | 0.00 | 42 | 1008.8 |